Location: ??
(35.5090°N, 139.6783°E)
Time: 19:32:34
(UTC+00:00)

SKYMED 2 - Pass Details

Date: 08 November 2025
Orbit: 621 x 623 km, 97.9° (Epoch: 08 December)

Event Time Altitude Azimuth Distance (km) Brightness Sun altitude
Rises 08:32:45 0° 15° (NNE) 2,907 6.7 -11.1°
Reaches altitude 10° 08:34:58 10° 18° (NNE) 1,996 5.9 -11.6°
Maximum altitude 08:39:17 68° 101° (ESE) 671 3.5 -12.4°
Drops below altitude 10° 08:43:35 10° 185° (S) 1,981 6.4 -13.3°
Sets 08:45:46 0° 187° (S) 2,883 7.2 -13.7°
